Location: Huesca
(42.1318°N, 0.4078°W)
Time: 16:46:10
(UTC+02:00)

Transit 2A Rocket - All Passes

Search period start: 14 July 2024 00:00
Search period end: 24 July 2024 00:00
Orbit: 582 x 910 km, 66.7° (Epoch: 13 July)

Date Brightness Start Highest point End Pass type
(mag) Time Alt. Az. Time Alt. Az. Time Alt. Az.
14 Jul - 00:52:14 10° NNW 00:57:48 35° NE 01:03:15 10° ESE visible
14 Jul - 02:34:43 10° NW 02:40:29 45° WSW 02:46:01 10° S visible
14 Jul - 15:27:36 10° SSE 15:31:14 19° ESE 15:35:04 10° ENE daylight
14 Jul - 17:07:49 10° SW 17:13:05 64° NW 17:18:51 10° NNE daylight
14 Jul - 18:53:45 10° WNW 18:56:52 15° NW 19:00:06 10° N daylight
15 Jul - 00:08:27 10° N 00:13:18 24° NE 00:18:05 10° E visible
15 Jul - 01:50:23 10° NNW 01:56:29 75° WSW 02:02:21 10° SSE visible
15 Jul - 03:36:18 10° W 03:37:56 11° W 03:39:34 10° WSW visible
15 Jul - 16:23:41 10° SSW 16:28:56 77° ESE 16:34:43 10° NNE daylight
15 Jul - 18:08:00 10° W 18:12:11 21° NW 18:16:36 10° N daylight
15 Jul - 23:24:52 10° N 23:28:39 17° NE 23:32:24 10° ENE visible
16 Jul - 01:06:15 10° NNW 01:12:20 69° ENE 01:18:13 10° SE visible
16 Jul - 02:49:58 10° WNW 02:54:16 21° WSW 02:58:28 10° SSW visible
16 Jul - 15:40:00 10° S 15:44:57 44° ESE 15:50:22 10° NE daylight
16 Jul - 17:22:47 10° WSW 17:27:38 32° NW 17:32:51 10° NNE daylight
16 Jul - 22:41:43 10° N 22:43:51 12° NNE 22:45:57 10° NE visible
17 Jul - 00:22:14 10° NNW 00:28:03 43° NE 00:33:41 10° ESE visible
17 Jul - 02:05:02 10° NW 02:10:29 35° WSW 02:15:43 10° S visible
17 Jul - 14:56:53 10° SSE 15:01:08 25° ESE 15:05:39 10° NE daylight
17 Jul - 16:38:01 10° SW 16:43:14 51° NW 16:48:56 10° NNE daylight
17 Jul - 18:24:49 10° WNW 18:27:17 13° NNW 18:29:48 10° N daylight
17 Jul - 23:38:23 10° NNW 23:43:36 28° NE 23:48:42 10° ESE visible
18 Jul - 01:20:34 10° NW 01:26:33 59° WSW 01:32:17 10° SSE visible
18 Jul - 14:14:49 10° SE 14:17:26 14° E 14:20:09 10° ENE daylight
18 Jul - 15:53:41 10° SSW 15:59:01 84° WNW 16:04:53 10° NNE daylight
18 Jul - 17:38:43 10° W 17:42:31 18° NW 17:46:29 10° N daylight
18 Jul - 22:54:41 10° N 22:59:00 20° NE 23:03:16 10° E visible
19 Jul - 00:36:20 10° NNW 00:42:28 85° ENE 00:48:21 10° SSE visible
19 Jul - 02:20:45 10° WNW 02:24:10 16° WSW 02:27:31 10° SW visible
19 Jul - 15:09:46 10° SSW 15:14:57 57° ESE 15:20:37 10° NE daylight
19 Jul - 16:53:16 10° WSW 16:57:53 27° NW 17:02:49 10° NNE daylight
19 Jul - 22:11:15 10° N 22:14:15 14° NNE 22:17:14 10° ENE visible
19 Jul - 23:52:16 10° NNW 23:58:14 53° NE 00:04:00 10° SE visible
20 Jul - 01:35:27 10° NW 01:40:27 27° WSW 01:45:15 10° SSW visible
20 Jul - 14:26:22 10° S 14:31:03 32° ESE 14:36:06 10° NE daylight
20 Jul - 16:08:18 10° WSW 16:13:25 41° NW 16:18:58 10° NNE daylight
20 Jul - 17:56:12 10° NW 17:57:42 11° NNW 17:59:12 10° NNW daylight
20 Jul - 23:08:20 10° NNW 23:13:52 34° NE 23:19:12 10° ESE visible
21 Jul - 00:50:47 10° NW 00:56:34 46° WSW 01:02:05 10° S visible
21 Jul - 13:43:41 10° SSE 13:47:17 18° ESE 13:51:04 10° ENE daylight
21 Jul - 15:23:45 10° SW 15:29:06 67° WNW 15:34:58 10° NNE daylight
21 Jul - 17:09:32 10° WNW 17:12:51 15° NW 17:16:17 10° N daylight
21 Jul - 22:24:33 10° N 22:29:19 23° NE 22:33:59 10° E visible
22 Jul - 00:06:27 10° NNW 00:12:33 78° WSW 00:18:22 10° SSE visible
22 Jul - 01:52:05 10° W 01:54:02 12° W 01:55:56 10° WSW visible
22 Jul - 14:39:38 10° SSW 14:44:57 74° ESE 14:50:48 10° NE daylight
22 Jul - 16:23:50 10° W 16:28:09 22° NW 16:32:44 10° N daylight
22 Jul - 21:40:57 10° N 21:44:38 16° NE 21:48:15 10° ENE daylight
22 Jul - 23:22:18 10° NNW 23:28:22 66° ENE 23:34:12 10° SE visible
23 Jul - 01:05:57 10° WNW 01:10:20 21° WSW 01:14:35 10° SSW visible
23 Jul - 13:55:58 10° S 14:00:58 42° ESE 14:06:24 10° NE daylight
23 Jul - 15:38:39 10° WSW 15:43:36 34° NW 15:48:56 10° NNE daylight
23 Jul - 20:57:52 10° N 20:59:47 11° NNE 21:01:41 10° NE daylight
23 Jul - 22:38:17 10° NNW 22:44:03 41° NE 22:49:36 10° ESE visible
